This is the latest recevied weather packets stored in our database for station/object KI4FRU. If no packets are shown the sender has not sent any weather packets the latest 10 day(s).
| Time | Temp. | Humidity | Pressure | Rain* | Wind** | Luminosity | Snow |
|---|---|---|---|---|---|---|---|
| 1777472899 | 17.78° C | 99% | 1052 hPa | 0 mm | - | 54 W/m² | - |
| 1777472595 | 17.78° C | 99% | 1051.9 hPa | 0 mm | - | 58 W/m² | - |
| 1777472292 | 17.78° C | 99% | 1051.9 hPa | 0 mm | - | 59 W/m² | - |
| 1777471989 | 17.78° C | 99% | 1052.2 hPa | 0 mm | - | 52 W/m² | - |
| 1777471685 | 17.78° C | 99% | 1052.1 hPa | 0 mm | - | 44 W/m² | - |
| 1777471382 | 17.22° C | 99% | 1052 hPa | 0 mm | - | 48 W/m² | - |
| 1777471078 | 17.22° C | 99% | 1052.2 hPa | 0 mm | - | 50 W/m² | - |
| 1777470774 | 17.22° C | 99% | 1052.1 hPa | 0 mm | - | 43 W/m² | - |
| 1777470465 | 16.67° C | 99% | 1052.2 hPa | 0 mm | - | 35 W/m² | - |
| 1777470162 | 16.67° C | 99% | 1052 hPa | 0 mm | - | 36 W/m² | - |
| 1777469858 | 16.67° C | 99% | 1052.2 hPa | 0 mm | - | 29 W/m² | - |
| 1777469553 | 16.67° C | 99% | 1052 hPa | 0 mm | - | 17 W/m² | - |
| 1777469248 | 16.67° C | 99% | 1052 hPa | 0 mm | - | 22 W/m² | - |
| 1777468943 | 16.11° C | 99% | 1052.1 hPa | 0 mm | - | 30 W/m² | - |
| 1777468640 | 16.67° C | 99% | 1052 hPa | 0 mm | - | 37 W/m² | - |
| 1777468337 | 16.67° C | 99% | 1052.2 hPa | 0 mm | - | 26 W/m² | - |
| 1777468033 | 16.11° C | 99% | 1052.3 hPa | 0 mm | - | 29 W/m² | - |
| 1777467729 | 16.11° C | 99% | 1052.2 hPa | 0 mm | - | 29 W/m² | - |
| 1777467424 | 16.11° C | 99% | 1052.6 hPa | 0 mm | - | 27 W/m² | - |
| 1777467119 | 16.11° C | 99% | 1052.8 hPa | 0 mm | - | 24 W/m² | - |
| 1777466817 | 16.11° C | 99% | 1052.6 hPa | 0 mm | - | 23 W/m² | - |
| 1777466515 | 16.11° C | 99% | 1052.7 hPa | 0 mm | - | 27 W/m² | - |
| 1777466210 | 16.11° C | 99% | 1052.9 hPa | 0 mm | - | 25 W/m² | - |
| 1777465907 | 16.11° C | 99% | 1052.6 hPa | 0 mm | - | 30 W/m² | - |
| 1777465604 | 16.11° C | 99% | 1052.7 hPa | 0 mm | - | 24 W/m² | - |
* Rain latest hour (hover to see other rain measurements)
** Current wind speed in m/s (hover to see current wind gust speed)